TimeEST,TemperatureF,Dew PointF,Humidity,Sea Level PressureIn,VisibilityMPH,Wind Direction,Wind SpeedMPH,Gust SpeedMPH,PrecipitationIn,Events,Conditions,WindDirDegrees,DateUTC
12:15 AM,29.3,27.0,91,30.20,10.0,Calm,Calm,-,N/A,,Clear,0,2012-12-15 05:15:00
12:55 AM,29.8,27.5,91,30.19,10.0,Calm,Calm,-,N/A,,Clear,0,2012-12-15 05:55:00
1:15 AM,30.0,27.5,90,30.18,10.0,Calm,Calm,-,N/A,,Clear,0,2012-12-15 06:15:00
2:15 AM,30.0,27.3,90,30.18,10.0,Calm,Calm,-,N/A,,Clear,0,2012-12-15 07:15:00
2:35 AM,30.0,27.5,90,30.19,10.0,Calm,Calm,-,N/A,,Clear,0,2012-12-15 07:35:00
2:55 AM,30.2,27.7,90,30.18,10.0,Calm,Calm,-,N/A,,Clear,0,2012-12-15 07:55:00
3:15 AM,30.4,28.0,91,30.17,10.0,Calm,Calm,-,N/A,,Clear,0,2012-12-15 08:15:00
3:35 AM,30.2,28.2,92,30.17,10.0,Calm,Calm,-,N/A,,Clear,0,2012-12-15 08:35:00
3:55 AM,30.7,28.4,91,30.17,10.0,Calm,Calm,-,N/A,,Clear,0,2012-12-15 08:55:00
4:15 AM,30.9,28.4,90,30.17,10.0,Calm,Calm,-,N/A,,Clear,0,2012-12-15 09:15:00
4:35 AM,30.9,28.8,92,30.17,10.0,Calm,Calm,-,N/A,,Clear,0,2012-12-15 09:35:00
4:55 AM,31.8,29.1,90,30.16,10.0,Calm,Calm,-,N/A,,Clear,0,2012-12-15 09:55:00
5:15 AM,31.1,28.9,92,30.15,10.0,Calm,Calm,-,N/A,,Clear,0,2012-12-15 10:15:00
5:35 AM,31.1,29.1,92,30.15,10.0,Calm,Calm,-,N/A,,Clear,0,2012-12-15 10:35:00
5:55 AM,30.7,28.4,91,30.14,10.0,Calm,Calm,-,N/A,,Clear,0,2012-12-15 10:55:00
6:15 AM,30.4,28.8,94,30.14,10.0,Calm,Calm,-,N/A,,Clear,0,2012-12-15 11:15:00
6:35 AM,31.3,29.3,92,30.14,10.0,East,3.5,-,N/A,,Clear,100,2012-12-15 11:35:00
6:55 AM,30.2,28.4,93,30.13,10.0,Calm,Calm,-,N/A,,Clear,0,2012-12-15 11:55:00
7:15 AM,30.0,28.2,93,30.14,10.0,Calm,Calm,-,N/A,,Clear,0,2012-12-15 12:15:00
7:35 AM,29.8,27.9,92,30.13,10.0,Calm,Calm,-,N/A,,Clear,0,2012-12-15 12:35:00
7:55 AM,30.2,28.4,93,30.14,10.0,West,3.5,-,N/A,,Clear,270,2012-12-15 12:55:00
8:15 AM,30.6,28.9,94,30.15,10.0,WSW,4.6,-,N/A,,Clear,250,2012-12-15 13:15:00
8:35 AM,32.0,29.7,91,30.17,10.0,West,3.5,-,N/A,,Clear,260,2012-12-15 13:35:00
8:55 AM,32.2,30.2,92,30.17,10.0,Calm,Calm,-,N/A,,Clear,0,2012-12-15 13:55:00
9:15 AM,33.1,30.7,91,30.17,10.0,Calm,Calm,-,N/A,,Clear,0,2012-12-15 14:15:00
9:55 AM,36.1,31.5,83,30.14,10.0,East,3.5,-,N/A,,Clear,80,2012-12-15 14:55:00
10:15 AM,37.4,32.0,81,30.13,10.0,Calm,Calm,-,N/A,,Scattered Clouds,0,2012-12-15 15:15:00
10:35 AM,39.4,32.0,75,30.13,10.0,Calm,Calm,-,N/A,,Clear,0,2012-12-15 15:35:00
10:55 AM,41.2,29.5,63,30.12,10.0,Calm,Calm,-,N/A,,Clear,0,2012-12-15 15:55:00
11:15 AM,42.1,31.6,67,30.10,10.0,ENE,4.6,-,N/A,,Scattered Clouds,60,2012-12-15 16:15:00
11:35 AM,43.0,33.1,68,30.07,10.0,NE,6.9,-,N/A,,Scattered Clouds,50,2012-12-15 16:35:00
11:55 AM,45.0,33.4,64,30.07,10.0,Calm,Calm,-,N/A,,Clear,0,2012-12-15 16:55:00
12:35 PM,49.5,32.0,51,30.06,10.0,SW,5.8,-,N/A,,Clear,230,2012-12-15 17:35:00
1:15 PM,48.9,32.4,53,30.04,10.0,SSW,3.5,-,N/A,,Scattered Clouds,210,2012-12-15 18:15:00
1:35 PM,48.9,32.5,53,30.04,10.0,SSW,3.5,-,N/A,,Scattered Clouds,210,2012-12-15 18:35:00
1:55 PM,48.6,33.8,57,30.03,10.0,South,3.5,-,N/A,Rain,Light Rain,190,2012-12-15 18:55:00
2:15 PM,47.8,33.8,58,30.01,10.0,Calm,Calm,-,N/A,,Overcast,0,2012-12-15 19:15:00
2:35 PM,47.7,32.9,57,30.00,10.0,SSE,4.6,-,N/A,,Overcast,150,2012-12-15 19:35:00
2:55 PM,47.7,33.1,57,29.99,10.0,ESE,4.6,-,N/A,Rain,Light Rain,120,2012-12-15 19:55:00
3:15 PM,47.5,33.1,57,29.97,10.0,Calm,Calm,-,N/A,,Mostly Cloudy,0,2012-12-15 20:15:00
3:35 PM,47.3,34.0,60,29.96,10.0,SE,6.9,-,N/A,Rain,Light Rain,140,2012-12-15 20:35:00
3:55 PM,46.9,34.5,62,29.94,10.0,SE,6.9,-,N/A,Rain,Light Rain,130,2012-12-15 20:55:00
4:15 PM,47.3,33.8,59,29.93,10.0,Calm,Calm,-,N/A,Rain,Light Rain,0,2012-12-15 21:15:00
4:35 PM,47.8,34.2,59,29.94,10.0,Calm,Calm,-,N/A,,Clear,0,2012-12-15 21:35:00
4:55 PM,45.5,34.7,66,29.92,10.0,NE,4.6,-,N/A,,Clear,50,2012-12-15 21:55:00
5:15 PM,43.5,35.1,72,29.92,10.0,Calm,Calm,-,N/A,,Scattered Clouds,0,2012-12-15 22:15:00
5:35 PM,42.1,34.5,75,29.91,10.0,Calm,Calm,-,N/A,,Mostly Cloudy,0,2012-12-15 22:35:00
5:55 PM,42.3,35.8,78,29.91,10.0,Calm,Calm,-,N/A,,Overcast,0,2012-12-15 22:55:00
6:15 PM,41.4,36.3,82,29.91,10.0,Calm,Calm,-,N/A,,Overcast,0,2012-12-15 23:15:00
6:35 PM,42.6,35.6,76,29.91,10.0,Calm,Calm,-,N/A,,Overcast,0,2012-12-15 23:35:00
6:55 PM,41.9,36.7,82,29.93,10.0,Calm,Calm,-,N/A,,Overcast,0,2012-12-15 23:55:00
7:15 PM,44.2,36.7,75,29.91,10.0,East,3.5,-,N/A,Rain,Light Rain,100,2012-12-16 00:15:00
7:35 PM,42.4,38.5,86,29.90,10.0,NE,3.5,-,N/A,,Overcast,50,2012-12-16 00:35:00
7:55 PM,43.7,38.8,83,29.89,10.0,Calm,Calm,-,N/A,,Overcast,0,2012-12-16 00:55:00
8:15 PM,44.2,39.2,82,29.88,10.0,Calm,Calm,-,N/A,,Overcast,0,2012-12-16 01:15:00
8:35 PM,46.8,37.8,71,29.88,10.0,SSE,4.6,-,N/A,,Overcast,160,2012-12-16 01:35:00
8:55 PM,47.3,38.1,70,29.88,10.0,SSE,5.8,-,N/A,,Overcast,160,2012-12-16 01:55:00
9:15 PM,48.0,37.6,67,29.87,10.0,South,5.8,-,N/A,,Overcast,170,2012-12-16 02:15:00
9:35 PM,49.1,36.9,63,29.88,10.0,SSE,5.8,-,N/A,,Overcast,160,2012-12-16 02:35:00
9:55 PM,49.8,36.5,60,29.87,10.0,South,6.9,-,N/A,,Mostly Cloudy,170,2012-12-16 02:55:00
10:15 PM,50.2,36.7,60,29.87,10.0,Calm,Calm,-,N/A,,Overcast,0,2012-12-16 03:15:00
10:35 PM,50.0,36.7,60,29.87,10.0,Calm,Calm,-,N/A,,Overcast,0,2012-12-16 03:35:00
10:55 PM,48.9,37.0,64,29.87,10.0,Calm,Calm,-,N/A,,Overcast,0,2012-12-16 03:55:00
11:15 PM,50.0,37.6,62,29.86,10.0,SSE,3.5,-,N/A,,Overcast,160,2012-12-16 04:15:00
11:35 PM,50.4,37.4,61,29.86,10.0,South,5.8,-,N/A,,Overcast,170,2012-12-16 04:35:00
11:55 PM,50.2,38.1,63,29.86,10.0,South,3.5,-,N/A,,Overcast,170,2012-12-16 04:55:00